Time,TemperatureF,DewpointF,PressureIn,WindDirection,WindDirectionDegrees,WindSpeedMPH,WindSpeedGustMPH,Humidity,HourlyPrecipIn,Conditions,Clouds,dailyrainin,SolarRadiationWatts/m^2,SoftwareType,DateUTC
2013-02-13 00:00:00,35.3,23.2,29.87,South,185,0.0,2.0,61,0.00,,,0.00,0,HR-IXPWINDi_r2_v1.2.,2013-02-13 05:00:00,
2013-02-13 00:05:00,35.3,23.2,29.87,South,185,0.0,2.0,61,0.00,,,0.00,0,HR-IXPWINDi_r2_v1.2.,2013-02-13 05:05:00,
2013-02-13 00:10:00,35.3,23.2,29.87,SE,127,0.0,4.0,61,0.00,,,0.00,0,HR-IXPWINDi_r2_v1.2.,2013-02-13 05:10:00,
2013-02-13 00:15:00,35.3,23.6,29.87,South,189,0.0,4.0,62,0.00,,,0.00,0,HR-IXPWINDi_r2_v1.2.,2013-02-13 05:15:00,
2013-02-13 00:20:00,35.3,23.2,29.87,NW,323,0.0,3.0,61,0.00,,,0.00,0,HR-IXPWINDi_r2_v1.2.,2013-02-13 05:20:00,
2013-02-13 00:26:00,35.2,23.1,29.88,NW,323,0.0,3.0,61,0.00,,,0.00,0,HR-IXPWINDi_r2_v1.2.,2013-02-13 05:26:00,
2013-02-13 00:31:00,35.0,23.3,29.88,NW,323,0.0,1.0,62,0.00,,,0.00,0,HR-IXPWINDi_r2_v1.2.,2013-02-13 05:31:00,
2013-02-13 00:36:00,35.0,22.9,29.87,NW,323,0.0,1.0,61,0.00,,,0.00,0,HR-IXPWINDi_r2_v1.2.,2013-02-13 05:36:00,
2013-02-13 00:41:00,35.0,23.3,29.87,NW,325,0.0,1.0,62,0.00,,,0.00,0,HR-IXPWINDi_r2_v1.2.,2013-02-13 05:41:00,
2013-02-13 00:46:00,34.9,23.2,29.87,NW,323,0.0,1.0,62,0.00,,,0.00,0,HR-IXPWINDi_r2_v1.2.,2013-02-13 05:46:00,
2013-02-13 00:52:00,35.0,23.3,29.87,NW,323,0.0,0.0,62,0.00,,,0.00,0,HR-IXPWINDi_r2_v1.2.,2013-02-13 05:52:00,
2013-02-13 00:57:00,34.7,23.0,29.87,NW,323,1.0,1.0,62,0.00,,,0.00,0,HR-IXPWINDi_r2_v1.2.,2013-02-13 05:57:00,
2013-02-13 01:02:00,34.7,23.4,29.87,NW,323,0.0,1.0,63,0.00,,,0.00,0,HR-IXPWINDi_r2_v1.2.,2013-02-13 06:02:00,
2013-02-13 01:07:00,34.7,23.0,29.87,NW,323,0.0,1.0,62,0.00,,,0.00,0,HR-IXPWINDi_r2_v1.2.,2013-02-13 06:07:00,
2013-02-13 01:12:00,34.7,23.4,29.87,NW,323,0.0,1.0,63,0.00,,,0.00,0,HR-IXPWINDi_r2_v1.2.,2013-02-13 06:12:00,
2013-02-13 01:17:00,34.6,23.3,29.87,NW,323,0.0,0.0,63,0.00,,,0.00,0,HR-IXPWINDi_r2_v1.2.,2013-02-13 06:17:00,
2013-02-13 01:23:00,34.4,23.1,29.88,NW,323,0.0,0.0,63,0.00,,,0.00,0,HR-IXPWINDi_r2_v1.2.,2013-02-13 06:23:00,
2013-02-13 01:28:00,34.1,23.2,29.88,NW,323,0.0,0.0,64,0.00,,,0.00,0,HR-IXPWINDi_r2_v1.2.,2013-02-13 06:28:00,
2013-02-13 01:33:00,34.0,23.5,29.88,NW,323,0.0,0.0,65,0.00,,,0.00,0,HR-IXPWINDi_r2_v1.2.,2013-02-13 06:33:00,
2013-02-13 01:38:00,33.8,23.6,29.89,NW,323,0.0,0.0,66,0.00,,,0.00,0,HR-IXPWINDi_r2_v1.2.,2013-02-13 06:38:00,
2013-02-13 01:43:00,33.7,23.5,29.89,NW,323,0.0,0.0,66,0.00,,,0.00,0,HR-IXPWINDi_r2_v1.2.,2013-02-13 06:43:00,
2013-02-13 01:49:00,33.5,23.7,29.89,NW,323,0.0,0.0,67,0.00,,,0.00,0,HR-IXPWINDi_r2_v1.2.,2013-02-13 06:49:00,
2013-02-13 01:54:00,33.5,24.1,29.90,NW,323,0.0,0.0,68,0.00,,,0.00,0,HR-IXPWINDi_r2_v1.2.,2013-02-13 06:54:00,
2013-02-13 01:59:00,33.2,24.1,29.90,NW,323,0.0,0.0,69,0.00,,,0.00,0,HR-IXPWINDi_r2_v1.2.,2013-02-13 06:59:00,
2013-02-13 02:04:00,33.1,24.0,29.90,NW,323,0.0,0.0,69,0.00,,,0.00,0,HR-IXPWINDi_r2_v1.2.,2013-02-13 07:04:00,
2013-02-13 02:09:00,32.9,23.8,29.91,NW,323,0.0,0.0,69,0.00,,,0.00,0,HR-IXPWINDi_r2_v1.2.,2013-02-13 07:09:00,
2013-02-13 02:15:00,32.9,23.8,29.91,NW,323,0.0,0.0,69,0.00,,,0.00,0,HR-IXPWINDi_r2_v1.2.,2013-02-13 07:15:00,
2013-02-13 02:20:00,33.1,24.0,29.91,NW,323,0.0,0.0,69,0.00,,,0.00,0,HR-IXPWINDi_r2_v1.2.,2013-02-13 07:20:00,
2013-02-13 02:25:00,33.2,24.1,29.90,NW,323,0.0,0.0,69,0.00,,,0.00,0,HR-IXPWINDi_r2_v1.2.,2013-02-13 07:25:00,
2013-02-13 02:30:00,33.4,24.3,29.90,NW,323,0.0,0.0,69,0.00,,,0.00,0,HR-IXPWINDi_r2_v1.2.,2013-02-13 07:30:00,
2013-02-13 02:35:00,33.4,25.0,29.90,North,11,2.0,2.0,71,0.00,,,0.00,0,HR-IXPWINDi_r2_v1.2.,2013-02-13 07:35:00,
2013-02-13 02:41:00,33.4,24.7,29.90,NNE,18,0.0,3.0,70,0.00,,,0.00,0,HR-IXPWINDi_r2_v1.2.,2013-02-13 07:41:00,
2013-02-13 02:46:00,33.2,24.8,29.90,NNE,18,1.0,3.0,71,0.00,,,0.00,0,HR-IXPWINDi_r2_v1.2.,2013-02-13 07:46:00,
2013-02-13 02:51:00,32.9,24.5,29.90,NNE,16,0.0,2.0,71,0.00,,,0.00,0,HR-IXPWINDi_r2_v1.2.,2013-02-13 07:51:00,
2013-02-13 02:56:00,32.8,24.4,29.90,NNE,16,0.0,2.0,71,0.00,,,0.00,0,HR-IXPWINDi_r2_v1.2.,2013-02-13 07:56:00,
2013-02-13 03:01:00,32.8,24.1,29.90,NNE,16,0.0,0.0,70,0.00,,,0.00,0,HR-IXPWINDi_r2_v1.2.,2013-02-13 08:01:00,
2013-02-13 03:06:00,33.1,24.4,29.89,WNW,294,0.0,3.0,70,0.00,,,0.00,0,HR-IXPWINDi_r2_v1.2.,2013-02-13 08:06:00,
2013-02-13 03:12:00,33.1,24.0,29.89,WNW,294,0.0,3.0,69,0.00,,,0.00,0,HR-IXPWINDi_r2_v1.2.,2013-02-13 08:12:00,
2013-02-13 03:17:00,32.9,23.8,29.89,South,171,0.0,3.0,69,0.00,,,0.00,0,HR-IXPWINDi_r2_v1.2.,2013-02-13 08:17:00,
2013-02-13 03:22:00,32.9,23.5,29.89,South,172,0.0,3.0,68,0.00,,,0.00,0,HR-IXPWINDi_r2_v1.2.,2013-02-13 08:22:00,
2013-02-13 03:27:00,32.9,23.5,29.89,South,172,0.0,0.0,68,0.00,,,0.00,0,HR-IXPWINDi_r2_v1.2.,2013-02-13 08:27:00,
2013-02-13 03:32:00,32.9,23.5,29.89,South,171,0.0,0.0,68,0.00,,,0.00,0,HR-IXPWINDi_r2_v1.2.,2013-02-13 08:32:00,
2013-02-13 03:38:00,33.1,23.3,29.90,South,172,0.0,1.0,67,0.00,,,0.00,0,HR-IXPWINDi_r2_v1.2.,2013-02-13 08:38:00,
2013-02-13 03:43:00,33.2,23.8,29.90,South,171,0.0,1.0,68,0.00,,,0.00,0,HR-IXPWINDi_r2_v1.2.,2013-02-13 08:43:00,
2013-02-13 03:48:00,33.2,24.1,29.90,South,171,0.0,1.0,69,0.00,,,0.00,0,HR-IXPWINDi_r2_v1.2.,2013-02-13 08:48:00,
2013-02-13 03:53:00,33.1,24.0,29.89,South,171,0.0,0.0,69,0.00,,,0.00,0,HR-IXPWINDi_r2_v1.2.,2013-02-13 08:53:00,
2013-02-13 03:59:00,32.9,23.8,29.89,South,171,0.0,0.0,69,0.00,,,0.00,0,HR-IXPWINDi_r2_v1.2.,2013-02-13 08:59:00,
2013-02-13 04:04:00,32.9,23.8,29.89,South,171,0.0,0.0,69,0.00,,,0.00,0,HR-IXPWINDi_r2_v1.2.,2013-02-13 09:04:00,
2013-02-13 04:09:00,32.8,23.7,29.88,South,171,0.0,0.0,69,0.00,,,0.00,0,HR-IXPWINDi_r2_v1.2.,2013-02-13 09:09:00,
2013-02-13 04:14:00,32.7,24.0,29.88,South,171,0.0,0.0,70,0.00,,,0.00,0,HR-IXPWINDi_r2_v1.2.,2013-02-13 09:14:00,
2013-02-13 04:19:00,32.4,23.4,29.88,South,171,0.0,0.0,69,0.00,,,0.00,0,HR-IXPWINDi_r2_v1.2.,2013-02-13 09:19:00,
2013-02-13 04:25:00,32.2,23.2,29.88,South,171,0.0,0.0,69,0.00,,,0.00,0,HR-IXPWINDi_r2_v1.2.,2013-02-13 09:25:00,
2013-02-13 04:30:00,32.1,23.1,29.88,South,171,0.0,0.0,69,0.00,,,0.00,0,HR-IXPWINDi_r2_v1.2.,2013-02-13 09:30:00,
2013-02-13 04:35:00,31.8,22.8,29.88,South,171,0.0,0.0,69,0.00,,,0.00,0,HR-IXPWINDi_r2_v1.2.,2013-02-13 09:35:00,
2013-02-13 04:40:00,31.5,22.8,29.87,South,171,0.0,0.0,70,0.00,,,0.00,0,HR-IXPWINDi_r2_v1.2.,2013-02-13 09:40:00,
2013-02-13 04:45:00,31.2,22.9,29.87,South,171,0.0,0.0,71,0.00,,,0.00,0,HR-IXPWINDi_r2_v1.2.,2013-02-13 09:45:00,
2013-02-13 04:51:00,31.0,22.7,29.87,South,171,0.0,0.0,71,0.00,,,0.00,0,HR-IXPWINDi_r2_v1.2.,2013-02-13 09:51:00,
2013-02-13 04:56:00,30.7,22.4,29.87,South,171,0.0,0.0,71,0.00,,,0.00,0,HR-IXPWINDi_r2_v1.2.,2013-02-13 09:56:00,
2013-02-13 05:01:00,30.6,22.6,29.87,South,171,0.0,0.0,72,0.00,,,0.00,0,HR-IXPWINDi_r2_v1.2.,2013-02-13 10:01:00,
2013-02-13 05:06:00,30.1,22.5,29.86,South,171,0.0,0.0,73,0.00,,,0.00,0,HR-IXPWINDi_r2_v1.2.,2013-02-13 10:06:00,
2013-02-13 05:12:00,29.8,22.5,29.86,South,171,0.0,0.0,74,0.00,,,0.00,0,HR-IXPWINDi_r2_v1.2.,2013-02-13 10:12:00,
2013-02-13 05:17:00,29.5,22.6,29.86,South,171,0.0,0.0,75,0.00,,,0.00,0,HR-IXPWINDi_r2_v1.2.,2013-02-13 10:17:00,
2013-02-13 05:22:00,29.4,22.5,29.86,South,171,0.0,0.0,75,0.00,,,0.00,0,HR-IXPWINDi_r2_v1.2.,2013-02-13 10:22:00,
2013-02-13 05:27:00,29.1,22.5,29.86,South,171,0.0,0.0,76,0.00,,,0.00,0,HR-IXPWINDi_r2_v1.2.,2013-02-13 10:27:00,
2013-02-13 05:32:00,29.0,22.4,29.86,South,171,0.0,0.0,76,0.00,,,0.00,0,HR-IXPWINDi_r2_v1.2.,2013-02-13 10:32:00,
2013-02-13 05:38:00,28.8,22.5,29.86,South,171,0.0,0.0,77,0.00,,,0.00,0,HR-IXPWINDi_r2_v1.2.,2013-02-13 10:38:00,
2013-02-13 05:43:00,28.7,22.4,29.86,South,171,0.0,0.0,77,0.00,,,0.00,0,HR-IXPWINDi_r2_v1.2.,2013-02-13 10:43:00,
2013-02-13 05:48:00,28.5,22.2,29.86,South,171,0.0,0.0,77,0.00,,,0.00,0,HR-IXPWINDi_r2_v1.2.,2013-02-13 10:48:00,
2013-02-13 05:53:00,28.5,22.2,29.86,South,171,0.0,0.0,77,0.00,,,0.00,0,HR-IXPWINDi_r2_v1.2.,2013-02-13 10:53:00,
2013-02-13 05:59:00,28.4,22.1,29.86,South,171,0.0,0.0,77,0.00,,,0.00,0,HR-IXPWINDi_r2_v1.2.,2013-02-13 10:59:00,
2013-02-13 06:04:00,28.1,21.8,29.86,South,171,0.0,0.0,77,0.00,,,0.00,0,HR-IXPWINDi_r2_v1.2.,2013-02-13 11:04:00,
2013-02-13 06:09:00,27.9,21.6,29.86,South,171,0.0,0.0,77,0.00,,,0.00,0,HR-IXPWINDi_r2_v1.2.,2013-02-13 11:09:00,
2013-02-13 06:14:00,27.9,21.6,29.86,South,171,0.0,0.0,77,0.00,,,0.00,0,HR-IXPWINDi_r2_v1.2.,2013-02-13 11:14:00,
2013-02-13 06:19:00,27.8,21.8,29.86,South,171,0.0,0.0,78,0.00,,,0.00,0,HR-IXPWINDi_r2_v1.2.,2013-02-13 11:19:00,
2013-02-13 06:24:00,27.8,21.5,29.86,South,171,0.0,0.0,77,0.00,,,0.00,0,HR-IXPWINDi_r2_v1.2.,2013-02-13 11:24:00,
2013-02-13 06:30:00,27.6,21.6,29.86,South,171,0.0,0.0,78,0.00,,,0.00,0,HR-IXPWINDi_r2_v1.2.,2013-02-13 11:30:00,
2013-02-13 06:35:00,27.8,22.1,29.86,South,171,0.0,0.0,79,0.00,,,0.00,0,HR-IXPWINDi_r2_v1.2.,2013-02-13 11:35:00,
2013-02-13 06:40:00,27.8,22.1,29.86,South,171,0.0,0.0,79,0.00,,,0.00,0,HR-IXPWINDi_r2_v1.2.,2013-02-13 11:40:00,
2013-02-13 06:45:00,27.6,21.9,29.86,South,171,0.0,0.0,79,0.00,,,0.00,0,HR-IXPWINDi_r2_v1.2.,2013-02-13 11:45:00,
2013-02-13 06:50:00,27.6,21.9,29.86,South,171,0.0,0.0,79,0.00,,,0.00,0,HR-IXPWINDi_r2_v1.2.,2013-02-13 11:50:00,
2013-02-13 06:55:00,27.5,21.8,29.87,South,171,0.0,0.0,79,0.00,,,0.00,0,HR-IXPWINDi_r2_v1.2.,2013-02-13 11:55:00,
2013-02-13 07:01:00,27.2,21.9,29.87,South,171,0.0,0.0,80,0.00,,,0.00,0,HR-IXPWINDi_r2_v1.2.,2013-02-13 12:01:00,
2013-02-13 07:06:00,27.0,21.7,29.87,South,171,0.0,0.0,80,0.00,,,0.00,0,HR-IXPWINDi_r2_v1.2.,2013-02-13 12:06:00,
2013-02-13 07:11:00,26.9,21.6,29.87,South,171,0.0,0.0,80,0.00,,,0.00,5,HR-IXPWINDi_r2_v1.2.,2013-02-13 12:11:00,
2013-02-13 07:16:00,26.7,21.7,29.87,South,171,0.0,0.0,81,0.00,,,0.00,7,HR-IXPWINDi_r2_v1.2.,2013-02-13 12:16:00,
2013-02-13 07:21:00,26.7,21.7,29.88,South,171,0.0,0.0,81,0.00,,,0.00,11,HR-IXPWINDi_r2_v1.2.,2013-02-13 12:21:00,
2013-02-13 07:27:00,26.6,21.6,29.88,South,171,0.0,0.0,81,0.00,,,0.00,12,HR-IXPWINDi_r2_v1.2.,2013-02-13 12:27:00,
2013-02-13 07:32:00,26.7,21.7,29.88,South,171,0.0,0.0,81,0.00,,,0.00,14,HR-IXPWINDi_r2_v1.2.,2013-02-13 12:32:00,
2013-02-13 07:37:00,27.0,22.2,29.88,South,171,0.0,0.0,82,0.00,,,0.00,16,HR-IXPWINDi_r2_v1.2.,2013-02-13 12:37:00,
2013-02-13 07:42:00,27.5,22.7,29.88,South,171,0.0,0.0,82,0.00,,,0.00,16,HR-IXPWINDi_r2_v1.2.,2013-02-13 12:42:00,
2013-02-13 07:47:00,27.8,23.0,29.88,South,172,0.0,0.0,82,0.00,,,0.00,18,HR-IXPWINDi_r2_v1.2.,2013-02-13 12:47:00,
2013-02-13 07:52:00,27.9,22.8,29.87,South,171,0.0,0.0,81,0.00,,,0.00,19,HR-IXPWINDi_r2_v1.2.,2013-02-13 12:52:00,
2013-02-13 07:57:00,28.2,23.1,29.87,South,171,0.0,0.0,81,0.00,,,0.00,21,HR-IXPWINDi_r2_v1.2.,2013-02-13 12:57:00,
2013-02-13 08:03:00,28.5,23.4,29.87,South,171,0.0,0.0,81,0.00,,,0.00,21,HR-IXPWINDi_r2_v1.2.,2013-02-13 13:03:00,
2013-02-13 08:08:00,28.8,23.4,29.87,South,171,0.0,0.0,80,0.00,,,0.00,21,HR-IXPWINDi_r2_v1.2.,2013-02-13 13:08:00,
2013-02-13 08:13:00,29.1,23.7,29.87,South,171,0.0,0.0,80,0.00,,,0.00,25,HR-IXPWINDi_r2_v1.2.,2013-02-13 13:13:00,
2013-02-13 08:18:00,29.4,23.7,29.87,South,171,0.0,0.0,79,0.00,,,0.00,25,HR-IXPWINDi_r2_v1.2.,2013-02-13 13:18:00,
2013-02-13 08:24:00,29.7,23.7,29.86,South,171,0.0,0.0,78,0.00,,,0.00,30,HR-IXPWINDi_r2_v1.2.,2013-02-13 13:24:00,
2013-02-13 08:29:00,30.1,24.1,29.86,South,171,0.0,0.0,78,0.00,,,0.00,46,HR-IXPWINDi_r2_v1.2.,2013-02-13 13:29:00,
2013-02-13 08:34:00,30.6,23.9,29.86,South,171,0.0,0.0,76,0.00,,,0.00,76,HR-IXPWINDi_r2_v1.2.,2013-02-13 13:34:00,
2013-02-13 08:39:00,31.2,24.2,29.86,South,171,0.0,0.0,75,0.00,,,0.00,39,HR-IXPWINDi_r2_v1.2.,2013-02-13 13:39:00,
2013-02-13 08:44:00,31.9,24.2,29.86,South,171,0.0,1.0,73,0.00,,,0.00,60,HR-IXPWINDi_r2_v1.2.,2013-02-13 13:44:00,
2013-02-13 08:50:00,32.4,24.0,29.86,South,171,0.0,1.0,71,0.00,,,0.00,35,HR-IXPWINDi_r2_v1.2.,2013-02-13 13:50:00,
2013-02-13 08:55:00,32.7,23.7,29.86,South,171,0.0,0.0,69,0.00,,,0.00,35,HR-IXPWINDi_r2_v1.2.,2013-02-13 13:55:00,
2013-02-13 09:00:00,33.4,23.6,29.86,South,171,0.0,2.0,67,0.00,,,0.00,40,HR-IXPWINDi_r2_v1.2.,2013-02-13 14:00:00,
2013-02-13 09:05:00,34.3,23.4,29.86,South,171,0.0,2.0,64,0.00,,,0.00,32,HR-IXPWINDi_r2_v1.2.,2013-02-13 14:05:00,
2013-02-13 09:10:00,35.0,23.7,29.85,South,171,1.0,2.0,63,0.00,,,0.00,32,HR-IXPWINDi_r2_v1.2.,2013-02-13 14:10:00,
2013-02-13 09:16:00,35.5,22.6,29.85,SSW,195,0.0,2.0,59,0.00,,,0.00,33,HR-IXPWINDi_r2_v1.2.,2013-02-13 14:16:00,
2013-02-13 09:21:00,35.3,21.6,29.84,NNE,30,1.0,6.0,57,0.00,,,0.00,48,HR-IXPWINDi_r2_v1.2.,2013-02-13 14:21:00,
2013-02-13 09:26:00,35.0,21.3,29.84,NE,40,3.0,6.0,57,0.00,,,0.00,44,HR-IXPWINDi_r2_v1.2.,2013-02-13 14:26:00,
2013-02-13 09:31:00,35.3,22.0,29.84,NE,40,0.0,3.0,58,0.00,,,0.00,35,HR-IXPWINDi_r2_v1.2.,2013-02-13 14:31:00,
2013-02-13 09:36:00,35.6,21.9,29.84,NE,37,3.0,3.0,57,0.00,,,0.00,37,HR-IXPWINDi_r2_v1.2.,2013-02-13 14:36:00,
2013-02-13 09:42:00,35.9,21.7,29.84,North,10,1.0,3.0,56,0.00,,,0.00,39,HR-IXPWINDi_r2_v1.2.,2013-02-13 14:42:00,
2013-02-13 09:47:00,35.8,21.2,29.84,NE,47,2.0,6.0,55,0.00,,,0.00,267,HR-IXPWINDi_r2_v1.2.,2013-02-13 14:47:00,
2013-02-13 09:52:00,35.9,21.7,29.83,ENE,71,3.0,6.0,56,0.00,,,0.00,137,HR-IXPWINDi_r2_v1.2.,2013-02-13 14:52:00,
2013-02-13 09:57:00,36.0,21.4,29.83,NE,56,2.0,5.0,55,0.00,,,0.00,125,HR-IXPWINDi_r2_v1.2.,2013-02-13 14:57:00,
2013-02-13 10:02:00,36.2,21.6,29.83,NE,47,0.0,5.0,55,0.00,,,0.00,44,HR-IXPWINDi_r2_v1.2.,2013-02-13 15:02:00,
2013-02-13 10:07:00,36.6,22.0,29.83,NE,35,0.0,5.0,55,0.00,,,0.00,44,HR-IXPWINDi_r2_v1.2.,2013-02-13 15:07:00,
2013-02-13 10:12:00,36.8,21.7,29.83,North,350,0.0,5.0,54,0.00,,,0.00,48,HR-IXPWINDi_r2_v1.2.,2013-02-13 15:12:00,
2013-02-13 10:18:00,37.2,21.6,29.83,WSW,247,2.0,5.0,53,0.00,,,0.00,44,HR-IXPWINDi_r2_v1.2.,2013-02-13 15:18:00,
2013-02-13 10:23:00,37.6,22.5,29.83,SW,227,2.0,5.0,54,0.00,,,0.00,48,HR-IXPWINDi_r2_v1.2.,2013-02-13 15:23:00,
2013-02-13 10:28:00,38.3,23.5,29.83,South,176,0.0,5.0,55,0.00,,,0.00,106,HR-IXPWINDi_r2_v1.2.,2013-02-13 15:28:00,
2013-02-13 10:33:00,38.2,21.2,29.83,ESE,103,1.0,3.0,50,0.00,,,0.00,137,HR-IXPWINDi_r2_v1.2.,2013-02-13 15:33:00,
2013-02-13 10:38:00,38.0,21.5,29.82,West,281,0.0,5.0,51,0.00,,,0.00,253,HR-IXPWINDi_r2_v1.2.,2013-02-13 15:38:00,
2013-02-13 10:43:00,38.5,22.4,29.82,SSE,154,1.0,5.0,52,0.00,,,0.00,183,HR-IXPWINDi_r2_v1.2.,2013-02-13 15:43:00,
2013-02-13 10:48:00,38.2,21.2,29.82,North,0,1.0,3.0,50,0.00,,,0.00,107,HR-IXPWINDi_r2_v1.2.,2013-02-13 15:48:00,
2013-02-13 10:54:00,37.6,21.1,29.82,East,83,3.0,6.0,51,0.00,,,0.00,109,HR-IXPWINDi_r2_v1.2.,2013-02-13 15:54:00,
2013-02-13 10:59:00,37.3,21.3,29.82,East,79,1.0,6.0,52,0.00,,,0.00,155,HR-IXPWINDi_r2_v1.2.,2013-02-13 15:59:00,
2013-02-13 11:04:00,37.6,21.1,29.82,WNW,299,0.0,5.0,51,0.00,,,0.00,102,HR-IXPWINDi_r2_v1.2.,2013-02-13 16:04:00,
2013-02-13 11:09:00,38.0,21.5,29.84,NNE,25,1.0,4.0,51,0.00,,,0.00,77,HR-IXPWINDi_r2_v1.2.,2013-02-13 16:09:00,
2013-02-13 11:15:00,38.6,22.0,29.84,WNW,295,0.0,4.0,51,0.00,,,0.00,158,HR-IXPWINDi_r2_v1.2.,2013-02-13 16:15:00,
2013-02-13 11:20:00,39.5,22.9,29.84,SE,126,2.0,4.0,51,0.00,,,0.00,197,HR-IXPWINDi_r2_v1.2.,2013-02-13 16:20:00,
2013-02-13 11:25:00,39.2,22.1,29.84,SE,126,2.0,3.0,50,0.00,,,0.00,396,HR-IXPWINDi_r2_v1.2.,2013-02-13 16:25:00,
2013-02-13 11:30:00,39.3,21.7,29.84,SE,126,1.0,3.0,49,0.00,,,0.00,528,HR-IXPWINDi_r2_v1.2.,2013-02-13 16:30:00,
2013-02-13 11:35:00,39.8,22.2,29.84,SE,145,1.0,6.0,49,0.00,,,0.00,206,HR-IXPWINDi_r2_v1.2.,2013-02-13 16:35:00,
2013-02-13 11:40:00,40.2,22.6,29.84,SSW,198,1.0,8.0,49,0.00,,,0.00,290,HR-IXPWINDi_r2_v1.2.,2013-02-13 16:40:00,
2013-02-13 11:46:00,40.2,22.6,29.84,SE,144,3.0,8.0,49,0.00,,,0.00,141,HR-IXPWINDi_r2_v1.2.,2013-02-13 16:46:00,
2013-02-13 11:51:00,39.8,22.2,29.83,SSE,148,2.0,6.0,49,0.00,,,0.00,141,HR-IXPWINDi_r2_v1.2.,2013-02-13 16:51:00,
2013-02-13 11:56:00,39.9,23.7,29.83,SSW,193,0.0,6.0,52,0.00,,,0.00,208,HR-IXPWINDi_r2_v1.2.,2013-02-13 16:56:00,
2013-02-13 12:01:00,39.3,21.7,29.83,ESE,109,0.0,5.0,49,0.00,,,0.00,222,HR-IXPWINDi_r2_v1.2.,2013-02-13 17:01:00,
2013-02-13 12:06:00,39.3,22.2,29.82,ESE,114,0.0,5.0,50,0.00,,,0.00,271,HR-IXPWINDi_r2_v1.2.,2013-02-13 17:06:00,
2013-02-13 12:12:00,39.9,21.8,29.82,ESE,116,2.0,4.0,48,0.00,,,0.00,304,HR-IXPWINDi_r2_v1.2.,2013-02-13 17:12:00,
2013-02-13 12:17:00,39.9,21.8,29.82,NNW,328,1.0,5.0,48,0.00,,,0.00,348,HR-IXPWINDi_r2_v1.2.,2013-02-13 17:17:00,
2013-02-13 12:22:00,39.8,22.2,29.81,West,275,1.0,5.0,49,0.00,,,0.00,304,HR-IXPWINDi_r2_v1.2.,2013-02-13 17:22:00,
2013-02-13 12:27:00,40.2,22.1,29.81,SSE,151,3.0,5.0,48,0.00,,,0.00,304,HR-IXPWINDi_r2_v1.2.,2013-02-13 17:27:00,
2013-02-13 12:32:00,40.2,22.1,29.81,SSW,205,1.0,5.0,48,0.00,,,0.00,297,HR-IXPWINDi_r2_v1.2.,2013-02-13 17:32:00,
2013-02-13 12:37:00,40.5,22.3,29.80,North,6,1.0,3.0,48,0.00,,,0.00,285,HR-IXPWINDi_r2_v1.2.,2013-02-13 17:37:00,
2013-02-13 12:43:00,40.9,22.2,29.80,WSW,243,2.0,2.0,47,0.00,,,0.00,413,HR-IXPWINDi_r2_v1.2.,2013-02-13 17:43:00,
2013-02-13 12:48:00,41.1,22.4,29.80,NNW,332,1.0,3.0,47,0.00,,,0.00,167,HR-IXPWINDi_r2_v1.2.,2013-02-13 17:48:00,
2013-02-13 12:53:00,41.1,22.9,29.79,South,186,0.0,3.0,48,0.00,,,0.00,174,HR-IXPWINDi_r2_v1.2.,2013-02-13 17:53:00,
2013-02-13 12:58:00,40.6,21.9,29.79,South,185,0.0,2.0,47,0.00,,,0.00,204,HR-IXPWINDi_r2_v1.2.,2013-02-13 17:58:00,
2013-02-13 13:04:00,40.3,22.2,29.79,South,178,2.0,3.0,48,0.00,,,0.00,311,HR-IXPWINDi_r2_v1.2.,2013-02-13 18:04:00,
2013-02-13 13:09:00,40.3,22.7,29.78,SSE,158,0.0,6.0,49,0.00,,,0.00,345,HR-IXPWINDi_r2_v1.2.,2013-02-13 18:09:00,
2013-02-13 13:14:00,41.2,22.5,29.78,SSE,158,0.0,6.0,47,0.00,,,0.00,362,HR-IXPWINDi_r2_v1.2.,2013-02-13 18:14:00,
2013-02-13 13:19:00,41.2,23.0,29.78,SSE,158,0.0,4.0,48,0.00,,,0.00,417,HR-IXPWINDi_r2_v1.2.,2013-02-13 18:19:00,
2013-02-13 13:25:00,41.9,22.1,29.77,SSE,162,2.0,5.0,45,0.00,,,0.00,206,HR-IXPWINDi_r2_v1.2.,2013-02-13 18:25:00,
2013-02-13 13:30:00,42.3,22.5,29.77,NW,306,0.0,5.0,45,0.00,,,0.00,382,HR-IXPWINDi_r2_v1.2.,2013-02-13 18:30:00,
2013-02-13 13:35:00,42.3,23.0,29.77,SSW,203,0.0,4.0,46,0.00,,,0.00,355,HR-IXPWINDi_r2_v1.2.,2013-02-13 18:35:00,
2013-02-13 13:40:00,42.8,22.9,29.75,SSW,203,0.0,4.0,45,0.00,,,0.00,273,HR-IXPWINDi_r2_v1.2.,2013-02-13 18:40:00,
2013-02-13 13:46:00,42.5,22.6,29.75,NNW,335,2.0,3.0,45,0.00,,,0.00,368,HR-IXPWINDi_r2_v1.2.,2013-02-13 18:46:00,
2013-02-13 13:51:00,42.5,22.6,29.73,NNW,332,1.0,4.0,45,0.00,,,0.00,433,HR-IXPWINDi_r2_v1.2.,2013-02-13 18:51:00,
2013-02-13 13:56:00,42.3,22.5,29.73,NW,316,0.0,4.0,45,0.00,,,0.00,426,HR-IXPWINDi_r2_v1.2.,2013-02-13 18:56:00,
2013-02-13 14:01:00,42.6,27.1,29.73,NW,315,1.0,3.0,54,0.00,,,0.00,417,HR-IXPWINDi_r2_v1.2.,2013-02-13 19:01:00,
2013-02-13 14:07:00,43.3,23.9,29.74,NW,306,0.0,2.0,46,0.00,,,0.00,410,HR-IXPWINDi_r2_v1.2.,2013-02-13 19:07:00,
2013-02-13 14:12:00,43.9,23.9,29.74,NW,308,1.0,2.0,45,0.00,,,0.00,338,HR-IXPWINDi_r2_v1.2.,2013-02-13 19:12:00,
2013-02-13 14:17:00,43.3,22.3,29.74,NW,309,1.0,2.0,43,0.00,,,0.00,192,HR-IXPWINDi_r2_v1.2.,2013-02-13 19:17:00,
2013-02-13 14:22:00,42.2,22.4,29.73,NE,55,1.0,3.0,45,0.00,,,0.00,230,HR-IXPWINDi_r2_v1.2.,2013-02-13 19:22:00,
2013-02-13 14:27:00,42.3,22.5,29.73,North,10,1.0,3.0,45,0.00,,,0.00,347,HR-IXPWINDi_r2_v1.2.,2013-02-13 19:27:00,
2013-02-13 14:32:00,42.6,22.2,29.73,North,0,1.0,4.0,44,0.00,,,0.00,304,HR-IXPWINDi_r2_v1.2.,2013-02-13 19:32:00,
2013-02-13 14:38:00,43.1,23.2,29.73,NW,318,0.0,4.0,45,0.00,,,0.00,188,HR-IXPWINDi_r2_v1.2.,2013-02-13 19:38:00,
2013-02-13 14:43:00,43.3,23.4,29.73,SW,215,0.0,3.0,45,0.00,,,0.00,65,HR-IXPWINDi_r2_v1.2.,2013-02-13 19:43:00,
2013-02-13 14:48:00,43.2,22.8,29.73,SW,216,0.0,2.0,44,0.00,,,0.00,81,HR-IXPWINDi_r2_v1.2.,2013-02-13 19:48:00,
2013-02-13 14:53:00,42.8,22.9,29.72,SW,216,1.0,3.0,45,0.00,,,0.00,106,HR-IXPWINDi_r2_v1.2.,2013-02-13 19:53:00,
2013-02-13 14:58:00,42.5,23.2,29.72,SW,215,0.0,3.0,46,0.00,,,0.00,77,HR-IXPWINDi_r2_v1.2.,2013-02-13 19:58:00,
2013-02-13 15:04:00,42.2,22.4,29.72,SW,215,0.0,2.0,45,0.00,,,0.00,139,HR-IXPWINDi_r2_v1.2.,2013-02-13 20:04:00,
2013-02-13 15:09:00,41.8,22.5,29.72,North,6,0.0,3.0,46,0.00,,,0.00,79,HR-IXPWINDi_r2_v1.2.,2013-02-13 20:09:00,
2013-02-13 15:14:00,41.8,24.0,29.72,North,6,0.0,3.0,49,0.00,,,0.00,90,HR-IXPWINDi_r2_v1.2.,2013-02-13 20:14:00,
2013-02-13 15:19:00,41.9,23.1,29.72,West,268,0.0,2.0,47,0.00,,,0.00,99,HR-IXPWINDi_r2_v1.2.,2013-02-13 20:19:00,
2013-02-13 15:24:00,42.2,22.9,29.72,SW,216,0.0,2.0,46,0.00,,,0.00,100,HR-IXPWINDi_r2_v1.2.,2013-02-13 20:24:00,
2013-02-13 15:30:00,42.5,23.7,29.72,SW,216,0.0,2.0,47,0.00,,,0.00,91,HR-IXPWINDi_r2_v1.2.,2013-02-13 20:30:00,
2013-02-13 15:35:00,42.5,22.6,29.72,SW,216,0.0,2.0,45,0.00,,,0.00,81,HR-IXPWINDi_r2_v1.2.,2013-02-13 20:35:00,
2013-02-13 15:40:00,42.5,24.7,29.72,SW,216,0.0,1.0,49,0.00,,,0.00,86,HR-IXPWINDi_r2_v1.2.,2013-02-13 20:40:00,
2013-02-13 15:45:00,42.5,23.7,29.72,SW,216,0.0,1.0,47,0.00,,,0.00,60,HR-IXPWINDi_r2_v1.2.,2013-02-13 20:45:00,
2013-02-13 15:51:00,42.2,23.9,29.71,SW,216,0.0,0.0,48,0.00,,,0.00,62,HR-IXPWINDi_r2_v1.2.,2013-02-13 20:51:00,
2013-02-13 15:56:00,42.2,23.4,29.71,SW,216,0.0,0.0,47,0.00,,,0.00,56,HR-IXPWINDi_r2_v1.2.,2013-02-13 20:56:00,
2013-02-13 16:01:00,42.2,23.4,29.71,SW,216,1.0,2.0,47,0.00,,,0.00,65,HR-IXPWINDi_r2_v1.2.,2013-02-13 21:01:00,
2013-02-13 16:06:00,42.1,23.3,29.71,SW,216,0.0,2.0,47,0.00,,,0.00,84,HR-IXPWINDi_r2_v1.2.,2013-02-13 21:06:00,
2013-02-13 16:11:00,42.1,22.8,29.71,SW,216,0.0,1.0,46,0.00,,,0.00,51,HR-IXPWINDi_r2_v1.2.,2013-02-13 21:11:00,
2013-02-13 16:16:00,41.9,22.6,29.71,SW,216,0.0,1.0,46,0.00,,,0.00,55,HR-IXPWINDi_r2_v1.2.,2013-02-13 21:16:00,
2013-02-13 16:21:00,41.9,23.1,29.70,SW,216,0.0,1.0,47,0.00,,,0.00,37,HR-IXPWINDi_r2_v1.2.,2013-02-13 21:21:00,
2013-02-13 16:27:00,41.8,22.5,29.70,SW,216,0.0,0.0,46,0.00,,,0.00,30,HR-IXPWINDi_r2_v1.2.,2013-02-13 21:27:00,
2013-02-13 16:32:00,41.6,23.4,29.70,SW,216,0.0,0.0,48,0.00,,,0.00,23,HR-IXPWINDi_r2_v1.2.,2013-02-13 21:32:00,
2013-02-13 16:37:00,41.2,23.5,29.70,SW,216,0.0,0.0,49,0.00,,,0.00,19,HR-IXPWINDi_r2_v1.2.,2013-02-13 21:37:00,
2013-02-13 16:42:00,40.9,23.2,29.70,SW,216,0.0,0.0,49,0.00,,,0.00,18,HR-IXPWINDi_r2_v1.2.,2013-02-13 21:42:00,
2013-02-13 16:47:00,40.6,22.9,29.70,SW,216,0.0,0.0,49,0.00,,,0.00,18,HR-IXPWINDi_r2_v1.2.,2013-02-13 21:47:00,
2013-02-13 16:52:00,40.5,22.8,29.70,SW,216,0.0,0.0,49,0.00,,,0.00,21,HR-IXPWINDi_r2_v1.2.,2013-02-13 21:52:00,
2013-02-13 16:58:00,40.5,23.8,29.70,SW,216,0.0,0.0,51,0.00,,,0.00,19,HR-IXPWINDi_r2_v1.2.,2013-02-13 21:58:00,
2013-02-13 17:03:00,40.3,23.6,29.70,SW,216,0.0,0.0,51,0.00,,,0.00,16,HR-IXPWINDi_r2_v1.2.,2013-02-13 22:03:00,
2013-02-13 17:08:00,40.2,23.5,29.69,SW,216,0.0,0.0,51,0.00,,,0.00,0,HR-IXPWINDi_r2_v1.2.,2013-02-13 22:08:00,
2013-02-13 17:13:00,40.1,23.4,29.69,SW,216,0.0,0.0,51,0.00,,,0.00,0,HR-IXPWINDi_r2_v1.2.,2013-02-13 22:13:00,
2013-02-13 17:19:00,39.9,23.2,29.69,SW,216,0.0,0.0,51,0.00,,,0.00,0,HR-IXPWINDi_r2_v1.2.,2013-02-13 22:19:00,
2013-02-13 17:24:00,39.9,24.1,29.68,SW,216,0.0,1.0,53,0.00,,,0.00,0,HR-IXPWINDi_r2_v1.2.,2013-02-13 22:24:00,
2013-02-13 17:29:00,39.8,24.9,29.68,SW,216,0.0,2.0,55,0.00,,,0.00,0,HR-IXPWINDi_r2_v1.2.,2013-02-13 22:29:00,
2013-02-13 17:34:00,39.5,23.8,29.68,SW,216,0.0,2.0,53,0.00,,,0.00,0,HR-IXPWINDi_r2_v1.2.,2013-02-13 22:34:00,
2013-02-13 17:39:00,39.3,24.5,29.68,SW,216,0.0,1.0,55,0.00,,,0.00,0,HR-IXPWINDi_r2_v1.2.,2013-02-13 22:39:00,
2013-02-13 17:45:00,39.2,24.4,29.68,SW,216,0.0,0.0,55,0.00,,,0.00,0,HR-IXPWINDi_r2_v1.2.,2013-02-13 22:45:00,
2013-02-13 17:50:00,39.1,24.3,29.68,SW,216,0.0,0.0,55,0.00,,,0.00,0,HR-IXPWINDi_r2_v1.2.,2013-02-13 22:50:00,
2013-02-13 17:55:00,38.8,24.4,29.67,SW,216,0.0,0.0,56,0.00,,,0.00,0,HR-IXPWINDi_r2_v1.2.,2013-02-13 22:55:00,
2013-02-13 18:00:00,38.5,24.2,29.67,SW,216,0.0,0.0,56,0.00,,,0.00,0,HR-IXPWINDi_r2_v1.2.,2013-02-13 23:00:00,
2013-02-13 18:05:00,38.2,23.9,29.67,SW,217,0.0,0.0,56,0.00,,,0.00,0,HR-IXPWINDi_r2_v1.2.,2013-02-13 23:05:00,
2013-02-13 18:11:00,37.9,24.0,29.67,SW,217,0.0,0.0,57,0.00,,,0.00,0,HR-IXPWINDi_r2_v1.2.,2013-02-13 23:11:00,
2013-02-13 18:16:00,37.8,23.9,29.67,SW,217,0.0,0.0,57,0.00,,,0.00,0,HR-IXPWINDi_r2_v1.2.,2013-02-13 23:16:00,
2013-02-13 18:21:00,37.6,24.6,29.66,SW,217,0.0,0.0,59,0.00,,,0.00,0,HR-IXPWINDi_r2_v1.2.,2013-02-13 23:21:00,
2013-02-13 18:26:00,37.3,24.3,29.66,SW,217,0.0,0.0,59,0.00,,,0.00,0,HR-IXPWINDi_r2_v1.2.,2013-02-13 23:26:00,
2013-02-13 18:31:00,37.5,25.3,29.66,SW,217,0.0,1.0,61,0.00,,,0.00,0,HR-IXPWINDi_r2_v1.2.,2013-02-13 23:31:00,
2013-02-13 18:36:00,37.6,25.4,29.67,SW,217,0.0,1.0,61,0.00,,,0.00,0,HR-IXPWINDi_r2_v1.2.,2013-02-13 23:36:00,
2013-02-13 18:41:00,37.6,25.0,29.67,SW,217,0.0,0.0,60,0.00,,,0.00,0,HR-IXPWINDi_r2_v1.2.,2013-02-13 23:41:00,
2013-02-13 18:47:00,37.5,24.9,29.67,SW,219,0.0,0.0,60,0.00,,,0.00,0,HR-IXPWINDi_r2_v1.2.,2013-02-13 23:47:00,
2013-02-13 18:52:00,37.3,24.7,29.66,SW,227,0.0,2.0,60,0.00,,,0.00,0,HR-IXPWINDi_r2_v1.2.,2013-02-13 23:52:00,
2013-02-13 18:57:00,37.2,25.0,29.66,SW,227,0.0,2.0,61,0.00,,,0.00,0,HR-IXPWINDi_r2_v1.2.,2013-02-13 23:57:00,
2013-02-13 19:02:00,37.5,25.7,29.66,SW,227,0.0,0.0,62,0.00,,,0.00,0,HR-IXPWINDi_r2_v1.2.,2013-02-14 00:02:00,
2013-02-13 19:08:00,37.3,25.8,29.67,SW,227,0.0,0.0,63,0.00,,,0.00,0,HR-IXPWINDi_r2_v1.2.,2013-02-14 00:08:00,
2013-02-13 19:13:00,37.3,25.1,29.67,SW,227,0.0,0.0,61,0.00,,,0.00,0,HR-IXPWINDi_r2_v1.2.,2013-02-14 00:13:00,
2013-02-13 19:18:00,37.2,25.0,29.67,SW,227,0.0,1.0,61,0.00,,,0.00,0,HR-IXPWINDi_r2_v1.2.,2013-02-14 00:18:00,
2013-02-13 19:23:00,37.0,24.8,29.67,SW,227,0.0,1.0,61,0.00,,,0.00,0,HR-IXPWINDi_r2_v1.2.,2013-02-14 00:23:00,
2013-02-13 19:29:00,37.0,24.0,29.67,SW,227,0.0,0.0,59,0.00,,,0.00,0,HR-IXPWINDi_r2_v1.2.,2013-02-14 00:29:00,
2013-02-13 19:34:00,36.9,25.1,29.67,SW,227,0.0,0.0,62,0.00,,,0.00,0,HR-IXPWINDi_r2_v1.2.,2013-02-14 00:34:00,
2013-02-13 19:39:00,36.9,25.5,29.68,SW,227,0.0,0.0,63,0.00,,,0.00,0,HR-IXPWINDi_r2_v1.2.,2013-02-14 00:39:00,
2013-02-13 19:44:00,36.8,25.4,29.68,SW,227,0.0,0.0,63,0.00,,,0.00,0,HR-IXPWINDi_r2_v1.2.,2013-02-14 00:44:00,
2013-02-13 19:50:00,36.8,25.4,29.68,SW,227,0.0,0.0,63,0.00,,,0.00,0,HR-IXPWINDi_r2_v1.2.,2013-02-14 00:50:00,
2013-02-13 19:55:00,36.6,25.2,29.68,SW,227,0.0,0.0,63,0.00,,,0.00,0,HR-IXPWINDi_r2_v1.2.,2013-02-14 00:55:00,
2013-02-13 20:00:00,36.5,25.8,29.68,SW,227,0.0,0.0,65,0.00,,,0.00,0,HR-IXPWINDi_r2_v1.2.,2013-02-14 01:00:00,
2013-02-13 20:06:00,36.2,25.2,29.67,SW,227,0.0,0.0,64,0.00,,,0.00,0,HR-IXPWINDi_r2_v1.2.,2013-02-14 01:06:00,
2013-02-13 20:11:00,36.2,25.2,29.67,SW,227,0.0,0.0,64,0.00,,,0.00,0,HR-IXPWINDi_r2_v1.2.,2013-02-14 01:11:00,
2013-02-13 20:16:00,36.2,24.8,29.67,SW,227,0.0,0.0,63,0.00,,,0.00,0,HR-IXPWINDi_r2_v1.2.,2013-02-14 01:16:00,
2013-02-13 20:21:00,36.3,25.7,29.66,SW,227,0.0,0.0,65,0.00,,,0.00,0,HR-IXPWINDi_r2_v1.2.,2013-02-14 01:21:00,
2013-02-13 20:26:00,36.2,26.3,29.66,SW,229,0.0,0.0,67,0.00,,,0.00,0,HR-IXPWINDi_r2_v1.2.,2013-02-14 01:26:00,
2013-02-13 20:31:00,36.0,26.1,29.66,SW,217,0.0,0.0,67,0.00,,,0.00,0,HR-IXPWINDi_r2_v1.2.,2013-02-14 01:31:00,
2013-02-13 20:37:00,36.0,26.1,29.67,SW,227,0.0,0.0,67,0.00,,,0.00,0,HR-IXPWINDi_r2_v1.2.,2013-02-14 01:37:00,
2013-02-13 20:42:00,35.9,26.0,29.67,SW,227,0.0,0.0,67,0.00,,,0.00,0,HR-IXPWINDi_r2_v1.2.,2013-02-14 01:42:00,
2013-02-13 20:47:00,35.9,26.0,29.67,SW,227,0.0,0.0,67,0.00,,,0.00,0,HR-IXPWINDi_r2_v1.2.,2013-02-14 01:47:00,
2013-02-13 20:52:00,35.8,26.3,29.68,SW,227,0.0,0.0,68,0.00,,,0.00,0,HR-IXPWINDi_r2_v1.2.,2013-02-14 01:52:00,
2013-02-13 20:57:00,35.8,25.9,29.68,SW,227,0.0,0.0,67,0.00,,,0.00,0,HR-IXPWINDi_r2_v1.2.,2013-02-14 01:57:00,
2013-02-13 21:02:00,35.8,25.9,29.68,SW,227,0.0,0.0,67,0.00,,,0.00,0,HR-IXPWINDi_r2_v1.2.,2013-02-14 02:02:00,
2013-02-13 21:08:00,35.8,26.6,29.68,SW,229,0.0,0.0,69,0.00,,,0.00,0,HR-IXPWINDi_r2_v1.2.,2013-02-14 02:08:00,
2013-02-13 21:13:00,35.6,26.8,29.68,SW,227,0.0,0.0,70,0.00,,,0.00,0,HR-IXPWINDi_r2_v1.2.,2013-02-14 02:13:00,
2013-02-13 21:18:00,35.5,27.0,29.68,SW,227,0.0,0.0,71,0.00,,,0.00,0,HR-IXPWINDi_r2_v1.2.,2013-02-14 02:18:00,
2013-02-13 21:23:00,35.2,27.4,29.68,ESE,110,1.0,3.0,73,0.00,,,0.00,0,HR-IXPWINDi_r2_v1.2.,2013-02-14 02:23:00,
2013-02-13 21:28:00,35.2,27.4,29.68,ESE,110,0.0,3.0,73,0.00,,,0.00,0,HR-IXPWINDi_r2_v1.2.,2013-02-14 02:28:00,
2013-02-13 21:34:00,35.2,27.7,29.68,ESE,110,1.0,2.0,74,0.00,,,0.00,0,HR-IXPWINDi_r2_v1.2.,2013-02-14 02:34:00,
2013-02-13 21:39:00,35.2,28.4,29.68,ESE,110,2.0,2.0,76,0.00,,,0.00,0,HR-IXPWINDi_r2_v1.2.,2013-02-14 02:39:00,
2013-02-13 21:44:00,34.9,29.0,29.68,ESE,110,1.0,2.0,79,0.00,,,0.00,0,HR-IXPWINDi_r2_v1.2.,2013-02-14 02:44:00,
2013-02-13 21:49:00,34.4,29.2,29.68,ESE,110,0.0,2.0,81,0.00,,,0.00,0,HR-IXPWINDi_r2_v1.2.,2013-02-14 02:49:00,
2013-02-13 21:54:00,34.1,29.5,29.68,NE,42,0.0,3.0,83,0.00,,,0.00,0,HR-IXPWINDi_r2_v1.2.,2013-02-14 02:54:00,
2013-02-13 21:59:00,33.8,29.5,29.68,NE,42,0.0,3.0,84,0.00,,,0.00,0,HR-IXPWINDi_r2_v1.2.,2013-02-14 02:59:00,
2013-02-13 22:05:00,33.5,29.5,29.68,NE,42,0.0,2.0,85,0.00,,,0.00,0,HR-IXPWINDi_r2_v1.2.,2013-02-14 03:05:00,
2013-02-13 22:10:00,33.4,29.6,29.68,NE,41,0.0,2.0,86,0.00,,,0.00,0,HR-IXPWINDi_r2_v1.2.,2013-02-14 03:10:00,
2013-02-13 22:15:00,33.2,29.7,29.68,North,7,0.0,5.0,87,0.00,,,0.00,0,HR-IXPWINDi_r2_v1.2.,2013-02-14 03:15:00,
2013-02-13 22:20:00,33.1,29.6,29.68,North,6,2.0,5.0,87,0.00,,,0.00,0,HR-IXPWINDi_r2_v1.2.,2013-02-14 03:20:00,
2013-02-13 22:25:00,33.1,29.9,29.68,North,6,0.0,2.0,88,0.00,,,0.00,0,HR-IXPWINDi_r2_v1.2.,2013-02-14 03:25:00,
2013-02-13 22:30:00,33.1,29.9,29.68,North,4,0.0,2.0,88,0.00,,,0.00,0,HR-IXPWINDi_r2_v1.2.,2013-02-14 03:30:00,
2013-02-13 22:36:00,32.9,30.0,29.68,North,3,0.0,2.0,89,0.00,,,0.00,0,HR-IXPWINDi_r2_v1.2.,2013-02-14 03:36:00,
2013-02-13 22:41:00,33.1,30.2,29.68,North,4,0.0,0.0,89,0.00,,,0.00,0,HR-IXPWINDi_r2_v1.2.,2013-02-14 03:41:00,
2013-02-13 22:46:00,32.9,30.0,29.68,North,4,0.0,1.0,89,0.00,,,0.00,0,HR-IXPWINDi_r2_v1.2.,2013-02-14 03:46:00,
2013-02-13 22:51:00,33.1,30.2,29.68,North,4,0.0,1.0,89,0.00,,,0.00,0,HR-IXPWINDi_r2_v1.2.,2013-02-14 03:51:00,
2013-02-13 22:56:00,32.9,30.0,29.68,North,1,0.0,2.0,89,0.00,,,0.00,0,HR-IXPWINDi_r2_v1.2.,2013-02-14 03:56:00,
2013-02-13 23:01:00,32.9,30.3,29.68,North,1,0.0,2.0,90,0.00,,,0.00,0,HR-IXPWINDi_r2_v1.2.,2013-02-14 04:01:00,
2013-02-13 23:07:00,32.9,30.3,29.68,North,1,0.0,1.0,90,0.00,,,0.00,0,HR-IXPWINDi_r2_v1.2.,2013-02-14 04:07:00,
2013-02-13 23:12:00,32.9,30.3,29.68,North,1,0.0,1.0,90,0.00,,,0.00,0,HR-IXPWINDi_r2_v1.2.,2013-02-14 04:12:00,
2013-02-13 23:17:00,32.8,30.2,29.68,North,1,0.0,0.0,90,0.00,,,0.00,0,HR-IXPWINDi_r2_v1.2.,2013-02-14 04:17:00,
2013-02-13 23:22:00,32.9,30.5,29.68,North,1,0.0,0.0,91,0.00,,,0.00,0,HR-IXPWINDi_r2_v1.2.,2013-02-14 04:22:00,
2013-02-13 23:27:00,32.9,30.5,29.68,North,1,0.0,0.0,91,0.00,,,0.00,0,HR-IXPWINDi_r2_v1.2.,2013-02-14 04:27:00,
2013-02-13 23:33:00,32.9,30.5,29.68,North,0,0.0,0.0,91,0.00,,,0.00,0,HR-IXPWINDi_r2_v1.2.,2013-02-14 04:33:00,
2013-02-13 23:38:00,32.9,30.5,29.68,North,0,0.0,0.0,91,0.00,,,0.00,0,HR-IXPWINDi_r2_v1.2.,2013-02-14 04:38:00,
2013-02-13 23:43:00,33.1,30.7,29.68,North,0,0.0,0.0,91,0.00,,,0.00,0,HR-IXPWINDi_r2_v1.2.,2013-02-14 04:43:00,
2013-02-13 23:48:00,32.9,30.5,29.68,North,0,0.0,0.0,91,0.00,,,0.00,0,HR-IXPWINDi_r2_v1.2.,2013-02-14 04:48:00,
2013-02-13 23:53:00,33.1,30.7,29.67,North,0,0.0,0.0,91,0.00,,,0.00,0,HR-IXPWINDi_r2_v1.2.,2013-02-14 04:53:00,
2013-02-13 23:59:00,33.1,30.7,29.67,North,0,0.0,0.0,91,0.00,,,0.00,0,HR-IXPWINDi_r2_v1.2.,2013-02-14 04:59:00,